This is the latest recevied weather packets stored in our database for station/object CE1RLP-31. If no packets are shown the sender has not sent any weather packets the latest 1 day(s).
| Time | Temp. | Humidity | Pressure | Rain* | Wind** | Luminosity | Snow |
|---|---|---|---|---|---|---|---|
| 1777851460 | 12.78° C | 12% | 1099.8 hPa | - | - | - | - |
| 1777850560 | 13.33° C | 12% | 1099.9 hPa | - | - | - | - |
| 1777849660 | 13.33° C | 12% | 1099.7 hPa | - | - | - | - |
| 1777848760 | 13.89° C | 13% | 1099.6 hPa | - | - | - | - |
| 1777847860 | 14.44° C | 12% | 1099.6 hPa | - | - | - | - |
| 1777846960 | 15° C | 12% | 1099.6 hPa | - | - | - | - |
| 1777846060 | 15.56° C | 12% | 1099.5 hPa | - | - | - | - |
| 1777845162 | 5° C | 12% | 1088.3 hPa | - | - | - | - |
| 1777844262 | 16.11° C | 12% | 1099.5 hPa | - | - | - | - |
| 1777843361 | 16.11° C | 11% | 1099.5 hPa | - | - | - | - |
| 1777842461 | 16.11° C | 11% | 1099.5 hPa | - | - | - | - |
| 1777841561 | 16.67° C | 11% | 1099.6 hPa | - | - | - | - |
| 1777840661 | 16.67° C | 11% | 1099.5 hPa | - | - | - | - |
| 1777839761 | 17.22° C | 10% | 1099.6 hPa | - | - | - | - |
| 1777838861 | 17.22° C | 10% | 1099.7 hPa | - | - | - | - |
| 1777837961 | 17.78° C | 9% | 1099.6 hPa | - | - | - | - |
| 1777837061 | 17.78° C | 9% | 1099.6 hPa | - | - | - | - |
| 1777836161 | 18.33° C | 9% | 1099.8 hPa | - | - | - | - |
| 1777835260 | 18.89° C | 9% | 1099.8 hPa | - | - | - | - |
| 1777834360 | 19.44° C | 9% | 1100.8 hPa | - | - | - | - |
| 1777833460 | 20° C | 9% | 1099.9 hPa | - | - | - | - |
| 1777832560 | 20° C | 9% | 1100 hPa | - | - | - | - |
| 1777831660 | 20.56° C | 9% | 1100.1 hPa | - | - | - | - |
| 1777830760 | 21.11° C | 9% | 1100.2 hPa | - | - | - | - |
| 1777829860 | 21.11° C | 9% | 1100.3 hPa | - | - | - | - |
* Rain since midnight (hover to see other rain measurements)
** Current wind speed in m/s (hover to see current wind gust speed)